This demonstration page uses our WeatherBlox Daily Observations layout. Learn more.

Left ArrowRight Arrow

39.29038, -76.61219

Hourly Observations for October 13, 2020

Temp ( °F °C ) Dew Point ( °F °C ) Humidity (%) Winds ( mph kmh ) Pressure ( in mb ) Visibility ( mi km ) Precip ( " mm )
12:28 am 00:28 Cloudy with Drizzle 59 15 57 13.9 93 93 N 7 11 29.92 1013 2 3 0.01 0.25
12:54 am 00:54 Cloudy with Drizzle 59 15 57 13.9 93 93 NNW 6 9 29.92 1013 2 2 0.03 0.76
1:06 am 01:06 Cloudy with Drizzle 59 15 57 13.9 93 93 N 6 9 29.92 1013 2 2 0.01 0.25
1:23 am 01:23 Cloudy with Drizzle 59 15 57 13.9 93 93 NNW 7 11 29.91 1013 2 3 0.01 0.25
1:36 am 01:36 Cloudy with Drizzle 59 15 57 13.9 93 93 NNW 6 9 29.91 1013 2 3 0.01 0.25
1:54 am 01:54 Cloudy with Drizzle 59 15 57 13.9 93 93 NNW 7 11 29.91 1013 2 3 0.01 0.25
2:06 am 02:06 Cloudy with Drizzle 58 14.4 57 13.9 97 97 NW 6 9 29.91 1013 2 3 0.01 0.25
2:23 am 02:23 Cloudy with Drizzle 59 15 57 13.9 93 93 NW 6 9 29.91 1013 3 5 0.01 0.25
2:40 am 02:40 Cloudy with Mist and Fog 58 14.4 57 13.9 97 97 NNW 6 9 29.91 1013 6 10 0.01 0.25
2:54 am 02:54 Cloudy with Mist and Fog 58 14.4 56 13.3 93 93 NW 7 11 29.90 1013 6 10 0.01 0.25
3:54 am 03:54 Cloudy 59 15 56 13.3 90 90 N 6 9 29.88 1012 10 16 0.00 0.00
4:16 am 04:16 Cloudy 59 15 56 13.3 90 90 VRB 5 7 29.88 1012 10 16 0.00 0.00
4:42 am 04:42 Cloudy 59 15 56 13.3 90 90 NW 6 9 29.89 1012 10 16 0.00 0.00
4:54 am 04:54 Cloudy 58 14.4 56 13.3 93 93 WNW 7 11 29.89 1012 10 16 0.00 0.00
5:54 am 05:54 Mostly Cloudy with Mist and Fog 58 14.4 56 13.3 93 93 Calm 29.88 1012 6 10 0.00 0.00
6:24 am 06:24 Mostly Cloudy 58 14.4 56 13.3 93 93 NW 3 6 29.89 1012 10 16 0.00 0.00
6:54 am 06:54 Mostly Cloudy 58 14.4 56 13.3 93 93 NNW 6 9 29.89 1012 10 16 0.00 0.00
7:18 am 07:18 Cloudy with Mist and Fog 58 14.4 55 12.8 90 90 NW 6 9 29.90 1013 6 10 0.00 0.00
7:54 am 07:54 Cloudy with Mist and Fog 58 14.4 56 13.3 93 93 WNW 8 13 29.90 1013 6 10 0.00 0.00
8:54 am 08:54 Cloudy 59 15 56 13.3 90 90 VRB 5 7 29.92 1013 7 11 0.00 0.00
9:23 am 09:23 Cloudy 60 15.6 56 13.3 86 86 VRB 3 6 29.92 1013 7 11 0.00 0.00
9:54 am 09:54 Cloudy 61 16.1 56 13.3 84 84 NW 6 9 29.93 1013 7 11 0.00 0.00
10:54 am 10:54 Cloudy 60 15.6 57 13.9 90 90 WNW 6 9 29.94 1014 7 11 0.00 0.00
11:54 am 11:54 Cloudy 60 15.6 56 13.3 86 86 WNW 9 15 29.95 1014 7 11 0.00 0.00
12:31 pm 12:31 Cloudy 62 16.7 56 13.3 80 80 WNW 9 15 29.93 1013 7 11 0.00 0.00
12:54 pm 12:54 Mostly Cloudy 64 17.8 57 13.9 78 78 NW 12 19 29.92 1013 10 16 0.00 0.00
1:54 pm 13:54 Cloudy 64 17.8 56 13.3 75 75 NNW 7 11 29.91 1013 10 16 0.00 0.00
2:54 pm 14:54 Mostly Cloudy 66 18.9 57 13.9 73 73 NNW 9 15 29.90 1013 10 16 0.00 0.00
3:07 pm 15:07 Mostly Cloudy 67 19.4 56 13.3 68 68 WNW 12 19 29.91 1013 10 16 0.00 0.00
3:54 pm 15:54 Mostly Cloudy 68 20 56 13.3 65 65 VRB 5 7 29.90 1013 10 16 0.00 0.00
4:54 pm 16:54 Mostly Cloudy 68 20 56 13.3 65 65 NNW 6 9 29.90 1012 10 16 0.00 0.00
5:54 pm 17:54 Mostly Cloudy 68 20 57 13.9 68 68 NW 3 6 29.91 1013 10 16 0.00 0.00
6:54 pm 18:54 Clear 62 16.7 51 10.6 67 67 WNW 7 11 29.91 1013 10 16 0.00 0.00
7:54 pm 19:54 Mostly Clear 57 13.9 50 10 78 78 W 7 11 29.94 1014 10 16 0.00 0.00
8:54 pm 20:54 Clear 57 13.9 49 9.4 74 74 W 6 9 29.95 1014 10 16 0.00 0.00
9:54 pm 21:54 Clear 54 12.2 48 8.9 80 80 W 5 7 29.96 1015 10 16 0.00 0.00
10:54 pm 22:54 Clear 52 11.1 47 8.3 83 83 W 5 7 29.97 1015 10 16 0.00 0.00
11:54 pm 23:54 Clear 53 11.7 47 8.3 80 80 WSW 3 6 29.98 1015 10 16 0.00 0.00

Powered by AerisWeather